Location: Asheville, NC
(35.6000°N, 82.5500°W)
Time: 18:37:49
(UTC-04:00)

PCSat - Pass Details

Date: 17 March 2018
Orbit: 784 x 796 km, 67.1° (Epoch: 19 June)

Event Time Altitude Azimuth Distance (km) Brightness Sun altitude
Rises 22:49:56 0° 236° (SW) 3,260 13.0 -37.8°
Reaches altitude 10° 22:52:41 10° 248° (WSW) 2,336 12.3 -38.3°
Enters shadow 22:53:55 16° 258° (WSW) 1,973 12.0 -38.5°
